Wind_Speed
17 17 17 17 18 19 21 22 25 27 28 29 28 27 24 23 23 24 25 26 27 28 28 27 28 29 29 29 30 30 31 32 33 34 34 35 36 37 38 39 39 38 38 37
16 15 15 16 17 18 20 22 24 26 27 27 26 24 21 20 21 22 22 23 25 25 26 26 26 26 26 27 27 27 28 28 29 30 30 32 33 34 35 36 37 38 38 37
14 14 14 15 16 18 20 21 23 24 24 24 23 21 19 18 19 20 20 22 23 24 24 24 24 24 25 25 25 25 25 25 25 26 26 28 29 30 31 32 34 35 36 36
11 12 13 14 15 17 19 20 21 21 22 21 21 19 17 17 18 19 20 21 22 23 23 23 23 23 23 23 22 22 22 22 21 22 23 24 25 26 27 28 30 32 33 34
10 11 12 14 15 16 17 18 18 19 19 19 18 17 16 17 18 19 20 21 22 23 22 22 22 21 21 20 19 19 19 19 18 18 19 20 21 22 24 25 27 29 31 32
9 10 11 13 14 15 16 16 16 16 16 15 15 16 16 17 18 20 20 21 21 21 21 21 21 21 20 19 19 18 18 17 16 16 16 16 16 18 19 21 22 25 27 29
6 8 10 11 12 13 13 13 13 13 13 13 13 13 15 16 17 19 19 19 19 19 20 20 21 21 20 19 19 18 17 16 16 15 14 14 13 13 14 16 18 20 22 25
3 4 5 7 9 10 12 12 12 13 13 12 13 13 13 14 15 16 17 18 18 19 19 20 20 20 20 19 19 18 17 17 16 15 14 13 12 11 11 12 13 16 18 20
0 2 4 6 8 10 11 12 12 12 12 12 12 12 12 13 14 15 16 17 18 18 19 20 20 21 20 20 19 19 18 18 16 15 14 13 12 11 9 8 8 10 12 16
2 3 5 6 8 9 10 12 12 12 13 12 12 12 13 13 14 15 16 17 18 19 20 20 21 21 21 20 20 20 19 19 18 17 16 15 13 12 10 8 6 6 8 10
3 3 4 6 7 8 9 10 11 12 12 13 13 13 13 14 15 15 16 17 18 19 21 21 22 22 22 21 20 20 20 20 19 18 17 16 15 13 11 10 7 5 5 7
4 4 4 5 7 8 10 10 11 12 13 13 13 14 14 14 15 16 16 17 18 20 21 22 22 22 23 22 22 21 21 20 20 19 18 17 16 15 13 11 9 7 6 6
6 6 6 6 8 9 10 11 11 12 12 13 13 13 14 15 16 16 16 16 18 19 21 22 22 23 23 23 23 22 22 21 21 20 20 19 17 16 15 13 11 9 7 6
7 7 7 7 8 9 10 10 11 11 12 12 13 13 14 14 15 16 16 17 18 19 20 21 21 22 23 23 23 23 23 23 22 21 20 20 19 17 16 14 13 12 10 7
6 6 7 7 7 8 9 10 11 11 11 12 13 13 14 14 14 15 16 17 18 18 19 20 21 21 22 23 24 23 23 23 23 22 21 20 19 18 17 16 15 13 11 9
5 6 6 6 7 7 8 9 9 10 10 11 12 12 13 14 14 15 16 17 18 18 19 20 21 21 22 22 23 23 23 23 23 23 22 21 20 19 18 17 16 14 13 10
4 5 5 6 6 7 7 8 8 9 9 10 10 11 11 12 13 14 15 16 17 17 18 19 20 21 21 22 23 23 23 23 23 23 23 22 21 21 19 18 17 16 14 12
2 3 4 4 5 5 6 7 8 8 9 9 9 10 10 11 12 13 14 15 16 17 18 19 19 20 21 21 22 23 23 23 24 24 24 24 23 22 20 19 18 17 16 14
0 1 2 3 3 4 5 6 6 7 8 8 9 9 10 11 12 13 13 14 15 16 17 18 18 19 20 20 21 22 23 23 23 24 24 24 24 23 22 21 20 19 18 16
3 2 2 2 3 4 5 6 6 7 7 8 8 9 9 10 11 12 12 13 13 14 15 16 17 18 18 19 20 21 21 22 22 23 23 24 24 24 23 22 21 21 20 19
6 5 5 4 5 5 5 5 6 6 7 8 9 9 9 10 11 11 12 12 13 14 14 15 16 17 18 18 19 19 20 21 21 22 22 23 23 23 23 22 21 21 20 19
8 8 7 7 7 7 7 7 7 7 8 9 9 9 10 10 11 11 12 12 12 13 14 14 15 15 16 17 17 18 19 20 20 21 21 22 22 22 22 22 21 21 21 20
11 11 10 10 10 10 10 9 9 9 10 10 10 10 10 11 11 11 12 12 12 12 13 13 14 14 15 16 16 17 17 18 19 19 20 20 21 21 21 21 21 21 20 20
14 14 14 13 13 12 12 12 12 12 12 12 11 11 11 11 11 12 12 12 12 12 12 13 13 13 14 15 15 16 16 17 17 18 18 19 19 20 20 20 21 20 20 20
18 17 17 16 15 15 15 15 15 15 15 15 14 14 14 13 13 13 13 12 12 12 13 13 13 13 13 14 14 14 15 15 15 16 16 17 17 17 18 18 19 19 19 18
22 21 20 18 18 17 18 18 18 18 18 17 17 17 17 16 16 15 15 14 14 14 14 14 13 13 13 13 13 13 13 13 14 14 14 14 15 15 15 15 16 16 17 17
Wind_Direction
252 263 275 284 290 296 303 308 311 313 313 312 313 315 317 318 316 313 310 309 309 308 307 305 303 301 298 295 292 288 285 281 277 275 272 269 266 263 261 258 256 254 251 250
255 265 276 284 293 301 306 309 310 311 311 312 314 317 320 321 318 316 316 315 314 313 312 312 311 309 305 302 298 294 290 286 281 277 274 271 267 264 262 258 254 252 250 248
259 270 279 288 297 304 307 308 310 312 312 313 315 319 323 324 323 323 323 323 324 323 322 321 319 316 313 309 304 301 297 293 288 283 278 274 269 266 263 259 255 252 249 246
264 276 285 293 300 304 307 310 311 313 314 314 317 322 328 329 332 333 334 335 335 334 333 331 328 324 321 317 312 309 307 303 297 292 286 280 274 268 264 259 254 250 248 245
263 275 286 296 303 308 311 315 315 316 316 316 320 326 335 337 342 344 344 343 342 342 341 340 338 335 332 329 325 321 318 316 311 305 297 289 281 273 266 260 255 251 248 246
268 282 293 303 310 317 321 322 322 322 321 321 327 333 343 347 349 350 349 346 346 348 349 350 350 348 346 344 341 338 334 331 327 320 313 303 292 281 271 262 257 252 249 246
277 292 302 313 321 328 332 333 333 333 333 337 342 347 352 353 353 353 352 351 352 354 356 357 357 357 357 356 355 352 348 344 341 337 330 320 308 295 281 270 261 254 250 246
268 287 307 321 332 340 347 350 351 351 351 356 360 1 1 0 359 359 359 0 1 1 2 3 4 5 5 4 2 1 358 355 352 348 344 338 329 314 298 280 267 259 253 248
262 343 342 346 352 358 3 7 6 7 10 14 15 15 14 11 9 8 9 11 10 9 8 9 9 8 8 9 9 7 6 5 3 0 359 354 352 346 331 310 287 272 260 251
48 28 12 3 6 12 13 15 18 21 20 24 28 26 22 17 15 16 17 19 20 17 16 15 14 12 11 11 12 13 13 12 10 9 7 6 1 357 352 340 317 290 271 258
70 53 33 23 19 19 22 26 30 33 33 33 33 32 27 26 25 25 25 26 25 22 21 21 19 17 17 17 17 16 16 16 16 15 14 14 12 7 2 356 343 319 294 273
86 75 64 48 43 44 44 43 40 40 40 38 37 36 32 32 32 31 31 30 27 24 23 21 21 21 22 21 21 19 18 18 19 18 18 17 16 14 9 6 1 348 327 302
93 85 77 66 57 54 50 49 47 45 44 40 37 36 35 37 35 33 31 28 24 22 21 21 21 22 22 22 22 22 22 21 21 21 21 20 19 17 16 14 13 8 355 337
94 86 74 66 62 58 54 52 49 47 45 41 37 36 35 34 33 32 30 26 22 21 20 21 22 22 22 22 23 23 23 22 22 21 21 21 20 19 19 17 16 16 12 5
92 84 74 65 60 59 57 54 51 49 46 42 38 35 32 32 31 31 29 25 22 20 20 21 22 22 21 22 22 23 22 22 22 22 21 20 20 20 20 18 15 15 13 12
91 77 67 59 54 52 53 53 50 47 44 40 34 32 29 30 30 29 27 24 21 21 22 22 22 22 21 21 22 23 24 24 24 25 24 24 23 22 21 19 17 16 15 15
90 71 59 49 42 43 47 48 46 41 38 33 30 27 26 27 27 26 25 23 22 21 22 22 22 22 23 23 23 24 25 26 26 26 26 26 25 24 23 22 21 22 22 23
93 71 62 52 43 35 42 43 43 41 37 33 27 23 21 21 21 22 21 20 19 19 20 21 23 24 24 24 25 26 26 27 28 28 28 28 29 28 28 28 28 28 29 30
188 64 53 43 33 28 27 28 29 31 32 30 26 22 18 16 17 17 15 14 14 15 18 20 22 23 23 24 24 25 26 27 28 28 29 30 30 30 31 32 33 33 34 35
257 271 298 330 340 356 4 6 9 13 16 14 13 10 7 7 9 11 10 8 8 9 13 16 18 20 21 22 23 24 25 26 27 27 29 30 31 32 33 34 35 36 38 39
263 270 276 286 295 310 323 333 341 345 352 355 356 355 354 355 358 1 4 5 5 6 9 13 15 17 19 20 22 23 24 24 24 25 27 28 30 31 33 34 36 37 39 40
266 270 274 279 284 289 296 304 312 320 328 334 337 339 341 343 345 348 350 353 357 360 4 7 9 10 12 15 17 18 20 21 22 23 25 27 28 30 32 33 35 37 38 40
265 268 270 273 278 284 289 294 299 303 308 313 318 323 327 330 333 335 338 341 346 350 355 359 1 2 4 6 8 11 14 16 18 20 23 25 27 30 32 33 35 38 39 41
265 267 268 270 275 280 285 289 293 296 298 301 304 308 312 316 319 322 325 330 334 338 343 346 350 353 356 358 1 3 6 9 11 15 19 21 24 28 32 33 35 37 40 42
263 265 268 271 275 279 283 286 289 290 290 291 293 296 299 303 306 309 311 314 320 324 328 333 336 340 344 348 352 355 358 1 4 7 12 16 19 23 27 31 33 36 38 41
264 267 271 274 276 277 279 281 282 284 285 286 287 288 290 292 295 298 300 303 305 308 313 317 321 326 330 334 338 343 347 351 355 358 2 6 11 15 20 24 28 33 36 39
Height
5911 5913 5912 5911 5909 5907 5905 5902 5899 5896 5893 5890 5886 5884 5881 5877 5873 5869 5865 5861 5857 5853 5849 5844 5841 5837 5833 5830 5826 5823 5821 5819 5817 5816 5815 5815 5815 5816 5818 5820 5822 5824 5827 5831
5910 5910 5910 5908 5906 5904 5902 5899 5896 5893 5889 5885 5882 5880 5877 5873 5869 5865 5861 5856 5852 5848 5843 5839 5835 5830 5826 5822 5819 5816 5813 5810 5808 5807 5805 5805 5805 5806 5807 5808 5811 5813 5816 5819
5907 5908 5906 5905 5903 5901 5898 5896 5892 5889 5885 5881 5878 5876 5873 5870 5865 5861 5857 5852 5848 5843 5838 5834 5829 5825 5820 5816 5812 5809 5806 5803 5800 5798 5797 5796 5796 5796 5797 5798 5800 5802 5805 5809
5904 5904 5903 5902 5900 5898 5895 5892 5889 5885 5881 5878 5875 5873 5870 5866 5862 5857 5853 5848 5844 5839 5834 5830 5825 5820 5816 5811 5807 5804 5800 5797 5794 5792 5790 5788 5787 5787 5787 5788 5790 5792 5795 5799
5902 5901 5900 5899 5897 5894 5892 5889 5885 5882 5878 5875 5872 5870 5867 5863 5858 5854 5850 5846 5841 5837 5832 5827 5822 5817 5812 5808 5804 5800 5796 5792 5789 5786 5784 5782 5780 5780 5779 5780 5781 5783 5786 5789
5900 5899 5898 5896 5894 5891 5889 5886 5882 5879 5876 5874 5870 5867 5864 5860 5856 5852 5848 5844 5840 5835 5830 5825 5820 5815 5810 5805 5801 5797 5792 5789 5785 5782 5779 5776 5775 5773 5773 5772 5773 5775 5777 5779
5898 5897 5895 5894 5891 5889 5887 5884 5881 5877 5874 5872 5869 5865 5863 5859 5855 5851 5847 5843 5839 5834 5830 5825 5820 5814 5809 5804 5800 5795 5791 5787 5783 5779 5776 5773 5770 5769 5767 5767 5767 5768 5769 5771
5896 5897 5895 5892 5890 5887 5885 5882 5880 5877 5873 5870 5867 5864 5862 5858 5855 5851 5847 5843 5838 5834 5830 5825 5820 5815 5809 5804 5799 5795 5790 5786 5782 5778 5774 5771 5768 5765 5763 5762 5762 5762 5763 5764
5895 5895 5893 5891 5888 5886 5883 5881 5878 5875 5872 5869 5867 5864 5861 5858 5855 5851 5847 5843 5839 5835 5830 5825 5820 5815 5810 5805 5800 5795 5790 5786 5782 5777 5773 5770 5766 5764 5761 5760 5759 5758 5758 5759
5893 5893 5891 5890 5887 5885 5883 5880 5878 5875 5872 5869 5867 5864 5862 5858 5855 5851 5848 5844 5840 5836 5831 5826 5821 5816 5811 5806 5801 5796 5791 5787 5782 5778 5774 5770 5766 5763 5760 5758 5757 5756 5755 5755
5892 5892 5891 5889 5888 5885 5883 5881 5878 5875 5873 5870 5867 5867 5863 5859 5856 5852 5849 5845 5841 5837 5833 5828 5823 5818 5812 5807 5803 5798 5793 5788 5783 5779 5775 5770 5767 5763 5760 5758 5756 5754 5753 5752
5892 5892 5891 5890 5888 5885 5883 5881 5878 5876 5874 5871 5869 5870 5863 5860 5857 5853 5850 5847 5843 5839 5835 5830 5825 5820 5815 5809 5804 5800 5795 5790 5785 5780 5776 5772 5768 5764 5761 5758 5755 5753 5751 5750
5892 5892 5891 5890 5890 5887 5883 5881 5879 5877 5875 5872 5870 5871 5865 5861 5858 5855 5852 5848 5845 5841 5837 5832 5827 5822 5817 5812 5807 5802 5797 5792 5787 5782 5778 5774 5769 5765 5762 5758 5755 5753 5751 5749
5892 5892 5892 5891 5889 5886 5884 5882 5880 5878 5876 5874 5872 5869 5866 5863 5860 5857 5853 5850 5847 5843 5839 5834 5829 5825 5820 5815 5809 5804 5799 5794 5789 5785 5780 5776 5771 5767 5763 5759 5756 5753 5751 5749
5893 5893 5891 5891 5889 5887 5885 5883 5881 5879 5877 5875 5873 5870 5868 5865 5862 5859 5855 5852 5848 5844 5840 5836 5831 5827 5822 5817 5812 5807 5802 5797 5792 5787 5782 5778 5773 5769 5765 5761 5757 5754 5751 5749
5893 5893 5892 5891 5890 5888 5886 5884 5882 5880 5878 5876 5874 5872 5869 5866 5863 5860 5857 5853 5850 5846 5842 5838 5833 5829 5824 5819 5815 5810 5804 5800 5795 5790 5785 5780 5776 5771 5767 5763 5759 5755 5752 5749
5894 5893 5892 5892 5890 5889 5887 5885 5883 5881 5879 5877 5875 5873 5870 5867 5864 5861 5858 5855 5851 5848 5844 5839 5835 5831 5826 5822 5817 5812 5807 5802 5798 5793 5788 5783 5778 5773 5769 5765 5761 5757 5753 5750
5894 5893 5893 5892 5891 5890 5890 5886 5884 5882 5880 5878 5875 5873 5871 5868 5865 5862 5859 5856 5853 5849 5845 5841 5837 5833 5829 5824 5820 5815 5810 5806 5801 5796 5791 5786 5781 5776 5772 5767 5763 5759 5755 5752
5893 5893 5892 5892 5890 5889 5889 5886 5884 5882 5880 5878 5876 5874 5871 5868 5866 5863 5860 5857 5854 5851 5847 5843 5839 5835 5831 5827 5822 5818 5813 5809 5804 5799 5795 5790 5785 5780 5775 5770 5766 5762 5758 5755
5892 5892 5892 5891 5889 5889 5889 5886 5884 5883 5880 5878 5876 5874 5871 5869 5866 5864 5861 5858 5855 5851 5848 5844 5841 5837 5833 5829 5825 5821 5816 5812 5807 5803 5798 5793 5788 5783 5779 5774 5770 5766 5762 5758
5891 5890 5890 5889 5888 5887 5887 5885 5884 5883 5881 5878 5875 5873 5871 5868 5866 5864 5861 5858 5855 5852 5849 5845 5842 5838 5835 5831 5827 5823 5819 5815 5810 5806 5801 5797 5792 5787 5783 5778 5774 5770 5766 5762
5888 5888 5887 5886 5886 5887 5884 5883 5882 5881 5878 5877 5875 5873 5871 5868 5865 5863 5860 5858 5855 5852 5849 5846 5843 5839 5836 5832 5829 5825 5821 5817 5813 5809 5805 5800 5795 5791 5787 5782 5778 5774 5770 5766
5884 5885 5884 5884 5884 5882 5881 5880 5879 5878 5877 5875 5873 5871 5869 5867 5865 5862 5860 5857 5855 5852 5849 5846 5843 5840 5837 5834 5830 5827 5823 5819 5816 5812 5807 5803 5799 5795 5790 5786 5782 5778 5774 5770
5880 5880 5880 5879 5879 5878 5878 5877 5876 5875 5874 5872 5871 5869 5867 5865 5863 5861 5859 5857 5854 5851 5849 5846 5843 5840 5837 5834 5831 5828 5825 5821 5817 5814 5810 5806 5802 5798 5794 5790 5786 5782 5778 5775
5874 5874 5874 5875 5875 5874 5873 5872 5871 5870 5869 5868 5867 5866 5864 5863 5861 5859 5857 5855 5852 5850 5847 5845 5842 5840 5837 5834 5831 5828 5825 5822 5819 5815 5812 5808 5805 5801 5797 5794 5790 5787 5783 5779
5868 5869 5870 5870 5870 5870 5869 5867 5866 5866 5865 5864 5863 5861 5860 5859 5857 5856 5854 5852 5850 5848 5845 5843 5841 5839 5836 5833 5831 5828 5825 5822 5820 5816 5813 5810 5807 5804 5800 5797 5794 5790 5787 5784